N5BAB Weather Reports


time (UTC)temp
F
wind
direction
speed
knots
gust
knots
rain 1hr
in
rain 24hr
in
rain mn
in
humidity
%
barometer
mb
20260506185042 55 74 4.3 14.8 0.00 0.07 0.07 90 1013.9
20260506184554 55 13 7.8 14.8 0.00 0.07 0.07 90 1013.9
20260506184042 55 15 8.7 18.2 0.00 0.07 0.07 90 1014.0
20260506183545 55 58 11.3 18.2 0.00 0.07 0.07 90 1014.0
20260506183051 55 36 7.8 14.8 0.00 0.07 0.07 90 1013.9
20260506182541 55 6 4.3 14.8 0.00 0.07 0.07 90 1014.9
20260506182042 55 74 4.3 19.1 0.00 0.07 0.07 91 1015.0
20260506181549 55 29 8.7 19.1 0.00 0.07 0.07 91 1014.5
20260506181039 55 88 7.0 18.2 0.00 0.07 0.07 91 1014.4
20260506180539 55 74 9.6 18.2 0.00 0.07 0.07 91 1014.4
20260506180053 55 26 7.8 13.9 0.00 0.07 0.07 91 1014.8
20260506175539 55 66 7.0 11.3 0.00 0.07 0.07 91 1015.2
20260506175043 55 37 3.5 16.5 0.00 0.07 0.07 91 1015.4
20260506174552 55 96 5.2 18.2 0.00 0.07 0.07 91 1015.7
20260506174042 55 29 9.6 18.2 0.00 0.07 0.07 91 1015.3
20260506173541 55 35 7.0 18.2 0.00 0.07 0.07 91 1015.1
20260506173122 55 65 7.8 15.6 0.00 0.07 0.07 91 1015.0
20260506172542 55 59 6.1 13.0 0.00 0.07 0.07 91 1014.8
20260506172042 55 32 6.1 14.8 0.00 0.07 0.07 91 1015.0
20260506171601 55 24 7.8 14.8 0.00 0.07 0.07 91 1014.6
20260506171041 56 71 7.0 13.0 0.00 0.07 0.07 91 1015.0
20260506170541 56 100 5.2 12.2 0.00 0.07 0.07 91 1015.3
20260506170050 55 51 4.3 13.9 0.00 0.07 0.07 91 1015.2
20260506165542 55 16 4.3 17.4 0.00 0.07 0.07 91 1015.2
20260506165042 55 60 4.3 17.4 0.00 0.07 0.07 91 1015.0
20260506164556 56 31 8.7 15.6 0.00 0.07 0.07 91 1014.5
20260506164041 56 62 7.8 17.4 0.00 0.07 0.07 91 1014.5
20260506163538 56 37 7.8 17.4 0.00 0.07 0.07 91 1014.7
20260506163103 56 46 8.7 16.5 0.00 0.07 0.07 91 1015.1
20260506162542 56 44 6.1 16.5 0.00 0.07 0.07 91 1015.0
20260506162038 56 28 7.8 16.5 0.00 0.07 0.07 91 1014.9
20260506161622 56 32 8.7 20.0 0.00 0.07 0.07 91 1014.5
20260506161038 56 47 8.7 20.0 0.00 0.07 0.07 91 1014.2
20260506160542 56 61 6.1 15.6 0.00 0.07 0.07 91 1013.8
20260506160058 56 86 7.8 18.2 0.00 0.07 0.07 91 1013.8
20260506155542 56 41 10.4 18.2 0.00 0.07 0.07 91 1013.8
20260506155043 57 33 7.8 18.2 0.00 0.07 0.07 91 1013.9
20260506154555 57 53 10.4 15.6 0.00 0.07 0.07 90 1013.9
20260506154042 57 64 7.8 14.8 0.00 0.07 0.07 91 1013.8
20260506153543 57 83 4.3 16.5 0.00 0.07 0.07 91 1013.9
20260506153057 57 66 7.0 16.5 0.00 0.07 0.07 90 1013.8
20260506152539 57 105 9.6 16.5 0.01 0.07 0.07 90 1013.7
20260506152042 57 63 6.1 14.8 0.01 0.07 0.07 91 1013.5
20260506151552 57 89 7.0 14.8 0.02 0.07 0.07 90 1013.4
20260506151042 57 64 7.8 14.8 0.02 0.07 0.07 90 1013.2
20260506150543 57 88 8.7 15.6 0.02 0.07 0.07 90 1013.0
20260506150053 57 91 7.8 20.9 0.02 0.07 0.07 90 1013.1
20260506145542 57 86 7.8 20.9 0.03 0.07 0.07 90 1013.1
20260506145042 57 64 7.8 20.9 0.03 0.07 0.07 90 1013.1
20260506144551 58 37 9.6 18.2 0.03 0.07 0.07 89 1013.1
20260506144042 58 76 9.6 18.2 0.03 0.07 0.07 90 1013.1
20260506143542 58 97 8.7 20.9 0.03 0.07 0.07 89 1013.0
20260506143050 59 69 9.6 23.5 0.03 0.07 0.07 89 1012.8
20260506142542 59 29 8.7 23.5 0.02 0.06 0.06 89 1012.8
20260506142042 59 45 9.6 21.7 0.02 0.06 0.06 89 1012.6
20260506141554 60 33 10.4 21.7 0.01 0.05 0.05 89 1012.4
20260506141044 60 53 12.2 22.6 0.01 0.05 0.05 88 1012.4
20260506140544 61 40 11.3 22.6 0.01 0.05 0.05 89 1012.3
20260506140052 62 30 8.7 18.2 0.01 0.05 0.05 89 1012.1
20260506135539 62 28 6.1 11.3 0.00 0.04 0.04 90 1012.0
20260506135041 62 41 4.3 8.7 0.00 0.04 0.04 90 1011.9
20260506134545 62 324 2.6 8.7 0.00 0.04 0.04 89 1011.8
20260506134043 62 294 2.6 7.8 0.00 0.04 0.04 89 1011.9
20260506133543 62 327 3.5 7.8 0.01 0.04 0.04 89 1011.8
20260506133049 62 296 2.6 7.0 0.03 0.04 0.04 89 1011.6
20260506132542 62 293 1.7 6.1 0.03 0.04 0.04 88 1011.6
20260506132042 62 307 2.6 4.3 0.03 0.04 0.04 88 1011.4
20260506131600 62 306 0.9 5.2 0.03 0.04 0.04 88 1011.4
20260506131042 62 11 1.7 5.2 0.03 0.04 0.04 88 1011.3
20260506130541 62 62 0.9 8.7 0.03 0.04 0.04 88 1011.1
20260506130112 63 41 0.9 8.7 0.03 0.04 0.04 88 1011.4
20260506125542 63 321 3.5 13.0 0.03 0.04 0.04 88 1011.3
20260506125042 63 9 4.3 13.0 0.03 0.04 0.04 87 1011.3
20260506124558 63 334 6.1 12.2 0.03 0.04 0.04 87 1011.3
20260506124042 63 359 3.5 9.6 0.03 0.04 0.04 87 1011.2
20260506123542 63 7 2.6 9.6 0.02 0.03 0.03 87 1011.0
20260506123049 63 297 3.5 9.6 0.00 0.01 0.01 87 1011.0
20260506122544 63 297 5.2 9.6 0.00 0.01 0.01 87 1010.8
20260506122041 64 309 3.5 9.6 0.00 0.01 0.01 88 1010.7
20260506121547 64 302 2.6 8.7 0.00 0.01 0.01 88 1010.8
20260506121042 64 309 0.9 8.7 0.00 0.01 0.01 88 1010.8
20260506120545 64 325 4.3 8.7 0.00 0.01 0.01 88 1010.7
20260506120100 64 12 0.9 2.6 0.00 0.01 0.01 88 1010.3
20260506115543 64 51 0.9 2.6 0.00 0.01 0.01 88 1010.2
20260506115042 64 41 0.9 2.6 0.00 0.01 0.01 87 1010.1
20260506114551 64 58 0.9 3.5 0.00 0.01 0.01 87 1010.0
20260506114042 64 319 0.9 3.5 0.00 0.01 0.01 87 1010.0
20260506113542 64 26 0.9 2.6 0.00 0.01 0.01 87 1009.7
20260506113055 64 28 0.9 2.6 0.00 0.01 0.01 87 1009.6
20260506112543 64 83 0.9 2.6 0.00 0.01 0.01 87 1009.5
20260506112043 64 0 0.0 1.7 0.00 0.01 0.01 87 1009.5
20260506111549 64 240 0.0 2.6 0.00 0.01 0.01 87 1009.4
20260506111042 64 83 0.0 2.6 0.00 0.01 0.01 87 1009.3
20260506110542 64 359 1.7 2.6 0.00 0.01 0.01 87 1009.3
20260506110055 64 83 0.9 1.7 0.00 0.01 0.01 87 1009.3
20260506105542 64 83 0.9 1.7 0.00 0.01 0.01 86 1009.1
20260506105041 64 0 0.9 1.7 0.00 0.01 0.01 86 1009.1
20260506104552 64 0 0.0 1.7 0.00 0.01 0.01 86 1009.1
20260506104042 64 0 0.0 2.6 0.00 0.01 0.01 86 1009.0
20260506103542 64 359 0.0 2.6 0.00 0.01 0.01 86 1009.1
20260506103057 64 306 0.9 3.5 0.00 0.01 0.01 86 1009.1
20260506102543 64 299 0.0 3.5 0.00 0.01 0.01 85 1009.0
20260506102042 64 315 0.9 1.7 0.00 0.01 0.01 85 1009.0
20260506101600 64 0 0.0 2.6 0.00 0.01 0.01 85 1008.9
20260506101042 64 0 0.0 3.5 0.00 0.01 0.01 85 1008.8
20260506100542 64 41 0.9 5.2 0.00 0.01 0.01 85 1008.8
20260506100109 64 276 1.7 5.2 0.00 0.01 0.01 85 1008.9
20260506095542 64 288 1.7 7.8 0.00 0.01 0.01 85 1008.7
20260506095042 64 299 3.5 7.8 0.00 0.01 0.01 84 1008.8
20260506094555 64 313 4.3 7.8 0.00 0.01 0.01 84 1008.8
20260506094042 65 276 2.6 7.0 0.00 0.01 0.01 84 1008.7
20260506093542 65 263 3.5 9.6 0.00 0.01 0.01 84 1008.6
20260506093052 65 282 3.5 9.6 0.00 0.01 0.01 83 1008.5
20260506092542 65 278 4.3 10.4 0.00 0.01 0.01 83 1008.5
20260506092043 65 332 6.1 12.2 0.00 0.01 0.01 82 1008.5
20260506091605 66 299 7.0 13.9 0.00 0.01 0.01 82 1008.3
20260506091043 66 292 8.7 13.9 0.01 0.01 0.01 82 1008.2
20260506090543 67 311 7.0 13.9 0.01 0.01 0.01 82 1008.2
20260506090051 67 302 7.0 13.9 0.01 0.01 0.01 82 1008.1
20260506085542 68 299 6.1 12.2 0.01 0.01 0.01 82 1008.0
20260506085042 69 269 6.1 12.2 0.01 0.01 0.01 82 1007.9
20260506084620 69 41 6.1 12.2 0.01 0.01 0.01 82 1007.9
20260506084043 70 289 7.0 12.2 0.01 0.01 0.01 82 1007.9
20260506083543 70 305 4.3 11.3 0.01 0.01 0.01 82 1007.8
20260506083051 71 324 7.0 14.8 0.01 0.01 0.01 83 1007.8
20260506082540 72 288 7.0 16.5 0.01 0.01 0.01 83 1007.7
20260506082042 72 274 7.8 25.2 0.01 0.01 0.01 83 1007.4
20260506081602 73 284 10.4 25.2 0.01 0.01 0.01 85 1007.3
20260506081042 75 281 7.0 17.4 0.00 0.00 0.00 89 1007.3
20260506080542 75 207 4.3 13.0 0.00 0.00 0.00 89 1007.1
20260506073057 75 204 7.8 18.2 0.00 0.00 0.00 89 1006.7
20260506072543 74 229 5.2 16.5 0.00 0.00 0.00 89 1006.6
20260506072044 74 216 6.1 16.5 0.00 0.00 0.00 89 1006.6
20260506071553 74 163 9.6 18.2 0.00 0.00 0.00 89 1006.7
20260506071042 74 359 5.2 18.2 0.00 0.00 0.00 89 1006.9
20260506070542 74 184 8.7 19.1 0.00 0.00 0.00 89 1006.6
20260506062043 75 159 7.0 16.5 0.00 0.00 0.00 88 1006.8
20260506061554 75 206 7.8 16.5 0.00 0.00 0.00 88 1006.9
20260506061043 75 202 6.1 13.9 0.00 0.00 0.00 87 1006.9
20260506060542 75 161 7.0 14.8 0.00 0.00 0.00 87 1007.0
20260506051042 75 199 6.1 13.0 0.00 0.00 0.00 86 1007.2
20260506050540 75 192 5.2 12.2 0.00 0.00 0.00 86 1007.3
20260506045042 75 202 6.1 13.0 0.00 0.00 0.00 85 1006.9
20260506044700 75 176 5.2 12.2 0.00 0.00 0.00 85 1006.9
20260506044042 75 186 6.1 12.2 0.00 0.00 0.00 85 1006.8
20260506043542 75 213 5.2 11.3 0.00 0.00 0.00 85 1006.8
20260506043107 75 193 5.2 12.2 0.00 0.00 0.00 85 1007.0
20260506042542 75 209 5.2 12.2 0.00 0.00 0.00 85 1006.9
20260506042041 76 195 5.2 11.3 0.00 0.00 0.00 85 1006.9
20260506041601 76 190 5.2 11.3 0.00 0.00 0.00 85 1006.8
20260506041042 76 143 5.2 11.3 0.00 0.00 0.00 84 1007.0
20260506040545 76 178 4.3 12.2 0.00 0.00 0.00 84 1006.9
20260506040052 76 218 3.5 12.2 0.00 0.00 0.00 84 1006.8
20260506035543 76 197 6.1 12.2 0.00 0.00 0.00 84 1006.7
20260506035043 76 215 5.2 12.2 0.00 0.00 0.00 84 1006.5
20260506034624 76 201 5.2 11.3 0.00 0.00 0.00 84 1006.3
20260506034042 76 198 7.0 11.3 0.00 0.00 0.00 84 1006.2
20260506033543 76 176 4.3 15.6 0.00 0.00 0.00 84 1005.8
20260506033056 76 173 5.2 16.5 0.00 0.00 0.00 84 1006.2
20260506032540 76 159 5.2 16.5 0.00 0.00 0.00 83 1006.1
20260506032040 76 197 6.1 10.4 0.00 0.00 0.00 83 1005.9
20260506031545 76 186 4.3 9.6 0.00 0.00 0.00 83 1006.3
20260506031043 77 198 5.2 8.7 0.00 0.00 0.00 83 1006.3
20260506030544 77 155 4.3 9.6 0.00 0.00 0.00 83 1006.2
20260506030052 77 255 4.3 9.6 0.00 0.00 0.00 83 1006.4
20260506025543 77 168 5.2 9.6 0.00 0.00 0.00 83 1006.1
20260506025045 77 165 3.5 9.6 0.00 0.00 0.00 83 1005.8
20260506024551 77 137 4.3 9.6 0.00 0.00 0.00 83 1005.7
20260506024043 77 163 3.5 8.7 0.00 0.00 0.00 82 1005.6
20260506023543 77 154 3.5 7.8 0.00 0.00 0.00 82 1005.6
20260506023107 77 168 3.5 9.6 0.00 0.00 0.00 82 1005.6
20260506022542 77 159 4.3 9.6 0.00 0.00 0.00 82 1005.6
20260506022043 77 129 3.5 7.8 0.00 0.00 0.00 82 1005.7
20260506021548 77 146 3.5 7.8 0.00 0.00 0.00 82 1005.9
20260506021043 77 168 2.6 7.8 0.00 0.00 0.00 82 1005.9
20260506020542 77 146 3.5 7.8 0.00 0.00 0.00 82 1005.8
20260506020047 77 149 3.5 7.8 0.00 0.00 0.00 82 1005.7
20260506015544 77 146 4.3 7.8 0.00 0.00 0.00 82 1005.6
20260506015045 77 192 3.5 7.0 0.00 0.00 0.00 82 1005.7
20260506014553 77 157 2.6 6.1 0.00 0.00 0.00 81 1005.7
20260506014043 78 140 2.6 6.1 0.00 0.00 0.00 81 1005.8
20260506013542 78 150 2.6 6.1 0.00 0.00 0.00 81 1005.6
20260506013053 78 168 2.6 6.1 0.00 0.00 0.00 80 1005.5
20260506012543 78 205 2.6 6.1 0.00 0.00 0.00 80 1005.7
20260506012045 78 132 1.7 6.1 0.00 0.00 0.00 79 1005.5
20260506011549 78 183 1.7 4.3 0.00 0.00 0.00 79 1005.5
20260506011043 79 202 1.7 4.3 0.00 0.00 0.00 79 1005.5
20260506010543 79 199 2.6 4.3 0.00 0.00 0.00 78 1005.5
20260506010100 79 186 0.9 4.3 0.00 0.00 0.00 78 1005.2
20260506005543 79 205 1.7 4.3 0.00 0.00 0.00 78 1005.2
20260506005042 79 229 1.7 4.3 0.00 0.00 0.00 78 1005.2
20260506004603 79 211 2.6 5.2 0.00 0.00 0.00 77 1005.1
20260506004043 79 180 1.7 8.7 0.00 0.00 0.00 77 1005.0
20260506003543 80 168 3.5 8.7 0.00 0.00 0.00 76 1004.8
20260506003102 80 180 2.6 6.1 0.00 0.00 0.00 76 1005.0
20260506002542 80 199 3.5 6.1 0.00 0.00 0.00 75 1005.1
20260506002042 80 217 2.6 6.1 0.00 0.00 0.00 75 1005.1
20260506001557 81 211 0.9 6.1 0.00 0.00 0.00 74 1005.1
20260506001043 81 229 3.5 7.8 0.00 0.00 0.00 74 1005.2
20260506000538 81 207 3.5 7.8 0.00 0.00 0.00 73 1005.2
20260506000053 81 215 1.7 11.3 0.00 0.00 0.00 73 1005.1
20260505235545 82 211 4.3 12.2 0.00 0.00 0.00 72 1004.9
20260505235041 82 211 4.3 12.2 0.00 0.00 0.00 72 1004.7
20260505234614 82 208 6.1 10.4 0.00 0.00 0.00 71 1004.6
20260505234042 82 202 4.3 12.2 0.00 0.00 0.00 71 1004.7
20260505233541 83 182 5.2 12.2 0.00 0.00 0.00 71 1004.5
20260505233051 83 140 5.2 11.3 0.00 0.00 0.00 70 1004.3
20260505232541 83 200 7.0 14.8 0.00 0.00 0.00 69 1004.4
20260505232043 84 223 4.3 14.8 0.00 0.00 0.00 68 1004.6
20260505231550 85 211 4.3 13.9 0.00 0.00 0.00 68 1004.6
20260505231040 84 219 7.0 13.9 0.00 0.00 0.00 67 1004.7
20260505230541 84 219 6.1 13.9 0.00 0.00 0.00 68 1004.8
20260505230054 84 192 7.0 15.6 0.00 0.00 0.00 68 1004.6
20260505225539 84 219 7.8 15.6 0.00 0.00 0.00 67 1004.8
20260505225039 84 168 7.0 13.0 0.00 0.00 0.00 68 1004.9
20260505224549 84 149 4.3 12.2 0.00 0.00 0.00 69 1004.8
20260505224038 84 152 3.5 13.0 0.00 0.00 0.00 70 1004.8
20260505223541 84 255 7.0 13.0 0.00 0.00 0.00 68 1004.8
20260505223052 84 186 5.2 19.1 0.00 0.00 0.00 66 1004.7
20260505222538 85 247 7.0 20.9 0.00 0.00 0.00 67 1004.5
20260505222038 84 238 7.8 20.9 0.00 0.00 0.00 66 1004.7
20260505221549 84 215 8.7 20.0 0.00 0.00 0.00 69 1004.9
20260505221040 84 224 6.1 13.9 0.00 0.00 0.00 68 1004.8
20260505220539 84 185 4.3 14.8 0.00 0.00 0.00 69 1004.8
20260505215539 84 195 7.8 14.8 0.00 0.00 0.00 67 1004.7
20260505215042 84 211 7.0 14.8 0.00 0.00 0.00 66 1004.8
20260505214554 85 204 6.1 13.0 0.00 0.00 0.00 68 1004.7
20260505214040 85 203 6.1 15.6 0.00 0.00 0.00 69 1004.9
20260505213541 84 228 7.0 15.6 0.00 0.00 0.00 68 1004.8
20260505213100 84 215 7.8 20.9 0.00 0.00 0.00 66 1004.8
20260505212538 84 211 9.6 21.7 0.00 0.00 0.00 65 1004.7
20260505212040 85 177 7.8 21.7 0.00 0.00 0.00 65 1004.9
20260505211554 86 191 7.8 19.1 0.00 0.00 0.00 65 1004.9
20260505211039 86 209 9.6 19.1 0.00 0.00 0.00 65 1004.9
20260505210538 86 226 10.4 19.1 0.00 0.00 0.00 63 1004.8
20260505210049 86 204 11.3 19.1 0.00 0.00 0.00 66 1004.8
20260505205543 87 222 8.7 18.2 0.00 0.00 0.00 64 1004.9
20260505205043 86 175 7.8 21.7 0.00 0.00 0.00 65 1004.9
20260505204550 86 222 9.6 21.7 0.00 0.00 0.00 64 1004.9
20260505204043 86 271 9.6 21.7 0.00 0.00 0.00 65 1005.0
20260505203543 86 173 6.1 15.6 0.00 0.00 0.00 67 1005.0
20260505203050 85 149 5.2 13.0 0.00 0.00 0.00 68 1004.9
20260505202543 85 229 6.1 12.2 0.00 0.00 0.00 65 1005.3
20260505202043 85 172 5.2 13.0 0.00 0.00 0.00 69 1005.2
20260505201552 85 159 6.1 14.8 0.00 0.00 0.00 70 1005.2
20260505201043 85 211 7.8 14.8 0.00 0.00 0.00 68 1005.3
20260505200544 85 216 7.8 13.9 0.00 0.00 0.00 69 1005.4
20260505200049 83 201 7.8 13.9 0.00 0.00 0.00 69 1005.5
20260505195543 82 223 7.0 16.5 0.00 0.00 0.00 71 1005.7
20260505195043 81 204 8.7 16.5 0.00 0.00 0.00 72 1005.7
20260505194554 81 233 7.8 13.9 0.00 0.00 0.00 74 1005.7
20260505194046 81 208 7.0 15.6 0.00 0.00 0.00 71 1005.8
20260505193544 81 205 8.7 19.1 0.00 0.00 0.00 72 1005.7
20260505193056 81 244 9.6 20.0 0.00 0.00 0.00 72 1005.6
20260505192543 80 204 10.4 20.0 0.00 0.00 0.00 72 1005.6
20260505192043 81 193 9.6 18.2 0.00 0.00 0.00 72 1005.6
20260505191556 80 172 7.8 21.7 0.00 0.00 0.00 72 1005.5
20260505191043 80 172 9.6 21.7 0.00 0.00 0.00 72 1005.5
20260505190543 81 216 9.6 20.9 0.00 0.00 0.00 71 1005.5
20260505190056 81 143 8.7 16.5 0.00 0.00 0.00 73 1005.0
20260505185543 81 202 8.7 17.4 0.00 0.00 0.00 73 1004.9